User: anonymous   Login
Location: Unspecified
(0.0000°N, 0.0000°E)
Time: 20:05:06
(UTC+00:00)
Language:

TBA - TO BE ASSIGNED - Orbit

View from above orbital plane
View from above orbital plane
View from above satellite
View from above satellite

Ground track
Ground track

The orbit is defined by the following mean orbital elements,

1 68562U          26145.03599639 +.00000000 +00000-0 +33394-3 0 00007
2 68562  53.1597   7.2352 0001153  90.9806 269.1329 15.34395624    04
Epoch (UTC): 25 May 2026 00:51:50
Eccentricity: 0.0001153
inclination: 53.1597°
perigee height: 462 km
apogee height: 464 km
right ascension of ascending node: 7.2352°
argument of perigee: 90.9806°
revolutions per day: 15.34395624
mean anomaly at epoch: 269.1329°

The dashed part of the orbit path shows where the satellite is in the earth's shadow,  

DLR